SCP
0 0 0 0 0 0 0 0 0 0 0 0 0 0 0 0 0 0 0 0 0 0 0 0 0 0 0 0 0 0 0 0 0 0 0 0 0 0 0 0 0 0 0 0
0 0 0 0 0 0 0 0 0 0 0 0 0 0 0 0 0 0 0 0 0 0 0 0 0 0 0 0 0 0 0 0 0 0 0 0 0 0 0 0 0 0 0 0
0 0 0 0 0 0 0 0 0 0 0 0 0 -0 0 0 0 0 0 0 0 0 0 0 0 0 0 0 0 0 0 0 0 0 0 0 0 0 0 0 0 0 0 0
0 0 0 0 0 0 0 0 0 0 0 0 0 0 0 0 0 0 -0 -0 -0 0 0 0 0 0 0 0 0 0 0 0 0 0 0 0 0 0 0 0 0 0 0 0
0 0 0 0 0 0 0 0 0 0 0 0 0 0 0 0 0 0 0 0 0 0 0 0 0 0 0 0 0 0 0 0 0 0 0 0 0 0 0 0 0 0 0 0
0 0 0 0 0 0 0 0 0 0 0 0 0 0 0 0 0 0 0 0 0 0 0 0 0 0 0 0 0 0 0 0 0 0 0 0 0 0 0 0 0 0 0 0
0 0 0 0 0 0 0 0 0 0 0 0 0 0 0 0 0 0 0 0 0 0 0 0 0 0 0 0 0 0 0 0 0 0 0 0 0 0 0 0 0 0 0 0
0 0 0 0 0 0 0 0 0 0 0 0 0 0 0 0 0 0 0 0 0 0 0 0 0 0 0 0 0 0 0 0 0 0 0 0 0 0 0 0 0 0 0 0
0 0 0 0 0 0 0 0 0 0 0 0 0 0 0 0 0 0 0 0 0 0 0 0 0 0 0 0 0 0 0 0 0 0 0 0 0 0 0 0 0 0 0 0
0 0 0 0 0 0 0 0 0 0 0 0 0 0 0 0 0 0 0 0 0 0 0 0 0 0 0 0 0 0 0 0 0 0 0 0 0 0 0 0 0 0 0 0
0 0 0 0 0 0 0 0 0 0 0 0 0 0 0 0 0 0 0 0 0 0 0 0 0 0 0 0 0 0 0 0 0 0 0 0 0 0 0 0 0 0 0 0
0 0 0 0 0 0 0 0 0 0 0 0 0 0 0 0 0 0 0 0 0 0 0 0 0 0 0 0 0 0 0 0 0 0 0 0 0 0 0 0 0 0 0 0
0 0 0 0 0 0 0 0 0 0 0 0 0 0 0 0 0 0 0 0 0 0 0 0 0 0 0 0 0 0 0 0 0 0 0 0 0 0 0 0 0 0 0 0
0 0 0 0 0 0 0 0 0 0 0 0 0 0 0 0 0 0 0 0 0 0 0 0 0 0 0 0 0 0 0 0 0 0 0 0 0 0 0 0 0 0 0 0
0 0 0 0 0 0 0 0 0 0 0 0 0 0 0 0 0 0 0 0 0 0 0 0 0 0 0 0 0 0 0 0 0 0 0 0 0 0 0 0 0 0 0 0
0 0 0 0 0 0 0 0 0 0 0 0 0 0 0 0 0 0 0 0 0 0 0 0 0 0 0 0 0 0 0 0 0 0 0 0 0 0 0 0 0 0 0 0
0 0 0 0 0 0 0 0 0 0 0 0 0 0 0 0 0 0 0 0 0 0 0 0 0 0 0 0 0 0 0 0 0 0 0 0 0 0 0 0 0 0 0 0
0 0 0 0 0 0 0 0 0 0 0 0 0 0 0 0 0 0 0 0 0 0 0 0 0 0 0 0 0 0 0 0 0 0 0 0 0 0 0 0 0 0 0 0
0 0 0 0 0 0 0 0 0 0 0 0 0 0 0 0 0 0 0 0 0 0 0 0 0 0 0 0 0 0 0 0 0 0 0 0 0 0 0 0 0 0 0 0
0 0 0 0 0 0 0 0 0 0 0 0 0 0 0 0 0 0 0 0 0 0 0 0 0 0 0 0 0 0 0 0 0 0 0 0 0 0 0 0 0 0 0 0
0 0 0 0 0 0 0 0 0 0 0 0 0 0 0 0 0 0 0 0 0 0 0 0 0 0 0 0 0 0 0 0 0 0 0 0 0 0 0 0 0 0 0 0
0 0 0 0 0 0 0 0 0 0 0 0 0 0 0 0 0 0 0 0 0 0 0 0 0 0 0 0 0 0 0 0 0 0 0 0 0 0 0 0 0 0 -0 -0
0 0 0 0 0 0 0 0 0 0 0 0 0 0 0 0 0 0 0 0 0 0 0 0 0 0 0 0 0 0 0 0 0 0 0 0 0 0 -0 -0 -0 -0 -0 -0
0 0 0 0 0 0 0 0 0 0 0 0 0 0 0 0 0 0 0 0 0 0 0 0 0 0 0 0 0 0 0 0 0 0 -0 -0 -0 -0 -0 -0 -0 -0 -0 -0
0 0 0 0 0 0 0 0 0 0 0 0 0 0 0 0 0 0 0 0 0 0 0 0 0 0 0 0 0 0 0 0 0 0 -0 -0 -0 -0 -0 -0 -0 -0 0 0
0 0 0 0 0 0 0 0 0 0 0 0 0 0 0 0 0 0 0 0 0 0 0 0 0 0 0 0 0 0 0 0 -0 -0 -0 -0 -0 -0 -0 -0 -0 0 0 0
Wind_Speed_500mb
28 8 27 24 27 7 11 10 11 5 7 9 18 30 33 39 41 49 62 64 67 71 73 62 57 49 44 48 54 49 44 44 47 50 58 63 66 66 68 66 59 54 52 51
10 41 11 14 12 15 6 7 8 7 9 11 12 27 31 25 32 60 66 69 69 64 69 66 48 45 50 51 49 51 53 53 54 53 53 60 62 63 62 63 63 59 57 55
20 4 38 22 17 24 23 27 8 6 4 4 9 25 20 19 54 52 65 72 71 71 66 54 44 43 45 49 49 52 59 60 58 56 55 55 61 64 64 60 60 56 58 61
22 14 18 5 28 27 27 16 13 5 7 8 4 20 10 7 8 11 30 38 42 36 45 48 46 48 48 50 49 47 51 58 58 60 57 53 54 59 60 58 55 54 49 47
16 20 27 20 15 25 11 16 26 12 10 5 7 7 7 1 8 8 17 26 28 28 23 23 27 32 34 37 40 41 43 51 55 54 52 48 46 48 58 59 57 54 49 41
13 10 21 24 13 33 15 12 10 6 8 16 18 19 30 15 14 10 12 22 19 21 15 13 11 10 18 20 25 30 29 31 36 41 41 38 34 34 40 44 45 45 43 40
9 17 5 16 14 8 15 16 5 10 11 20 18 15 48 5 2 13 17 15 18 9 14 15 12 8 4 5 7 11 16 19 21 21 21 18 18 17 20 24 27 30 31 32
25 14 24 11 15 15 32 25 13 17 12 8 11 21 21 11 47 52 46 52 31 23 24 23 22 26 29 28 22 15 12 13 13 16 15 16 19 20 22 22 23 23 26 30
26 21 4 12 14 30 18 34 14 7 3 4 10 14 16 16 15 19 23 21 35 35 36 36 38 42 41 42 43 39 34 29 25 20 18 13 10 12 15 19 22 24 26 30
13 4 9 13 15 29 16 21 17 19 12 14 10 9 19 3 16 13 15 26 38 43 44 45 42 41 40 41 42 41 40 40 39 34 30 26 22 17 12 8 5 5 8 12
15 7 1 22 32 35 14 18 16 11 15 14 11 15 14 22 23 16 22 43 55 52 54 51 45 40 38 36 34 34 33 31 30 28 26 22 20 17 12 9 5 4 7 12
22 10 10 31 6 25 39 34 31 14 18 21 3 12 3 10 12 24 30 50 54 52 53 48 42 36 31 27 26 24 22 19 17 15 12 9 8 6 6 7 10 13 17 20
29 12 9 5 0 2 27 25 26 12 4 17 20 23 6 8 11 34 53 52 57 57 50 43 35 28 23 18 14 12 11 9 8 6 6 9 12 15 18 22 26 30 34 37
53 13 34 30 27 16 21 41 39 38 26 36 28 35 12 11 17 26 45 54 56 55 49 39 29 21 15 10 3 3 7 10 13 16 17 20 25 28 33 38 43 48 54 58
21 25 34 40 6 11 18 37 51 41 51 36 49 31 44 19 20 39 59 55 53 45 40 33 25 17 11 4 4 9 18 16 15 23 24 28 34 39 42 47 51 57 63 67
14 8 21 32 19 14 8 23 31 49 58 42 29 15 35 20 43 45 56 58 54 44 34 27 20 13 7 4 5 9 14 19 23 25 31 30 40 44 47 51 57 62 64 64
20 17 15 33 34 25 18 37 39 36 47 50 38 60 13 11 37 49 57 57 56 43 33 25 15 8 5 6 10 15 18 22 26 31 36 41 42 42 43 45 48 51 53 55
32 30 13 9 21 27 23 15 43 41 36 41 31 16 25 24 29 41 50 55 46 36 28 18 10 4 5 8 11 14 18 22 26 29 33 36 40 45 48 47 49 51 55 58
40 33 17 13 23 6 9 13 20 27 46 27 51 14 19 46 39 15 35 37 35 28 20 13 8 5 4 8 12 15 18 21 23 26 31 38 45 48 52 55 58 60 62 62
28 32 21 4 10 18 11 8 7 13 27 19 24 28 26 44 19 10 43 35 29 23 17 12 7 3 3 8 11 14 18 24 29 34 39 43 48 52 56 58 61 64 68 72
18 22 32 14 7 10 4 9 8 20 15 8 26 40 50 19 5 51 49 37 28 21 16 11 8 4 4 9 13 17 23 29 34 40 44 47 51 56 61 63 66 71 74 76
23 18 15 5 7 16 7 9 19 7 11 27 37 48 48 48 54 54 45 36 28 22 17 12 9 5 6 12 16 21 27 33 38 43 48 52 57 63 68 73 74 76 79 84
2 10 14 12 9 5 3 10 5 13 31 30 38 40 55 57 51 46 40 32 26 21 16 13 9 6 9 17 24 30 35 41 46 51 57 62 65 69 72 78 82 85 84 87
4 6 7 8 4 5 8 13 18 28 35 40 46 51 51 58 50 45 38 32 27 21 15 10 7 7 12 19 26 34 42 50 57 63 67 71 76 79 80 81 83 87 88 88
3 8 11 5 5 9 10 22 36 40 45 49 46 47 49 48 43 38 34 28 22 17 12 6 3 9 16 24 32 40 48 54 60 65 70 74 78 82 86 85 86 87 84 81
10 11 10 10 31 8 17 60 55 59 53 51 53 51 41 38 41 35 30 26 19 13 6 2 9 16 22 27 34 41 48 54 60 67 71 74 79 82 85 89 95 85 85 82
Wind_Direction_500mb
180 177 212 190 200 149 167 177 186 213 229 185 232 248 251 248 256 256 258 260 262 267 274 272 272 266 259 261 263 264 264 271 271 264 257 253 256 256 256 255 258 259 259 261
184 230 170 175 194 208 174 180 220 270 230 188 253 255 264 224 238 246 252 257 261 266 268 273 272 262 256 259 259 259 262 268 268 264 265 257 259 262 263 263 262 260 261 262
194 238 172 170 181 200 220 224 168 202 327 247 304 271 226 242 236 244 249 257 263 262 263 267 268 262 261 260 261 264 269 267 264 258 258 259 253 255 260 264 266 265 263 264
229 209 168 150 202 185 219 193 169 164 66 244 19 280 251 273 220 211 239 239 245 258 264 266 267 267 267 269 269 271 268 262 261 254 250 256 259 257 261 266 273 275 277 277
206 167 179 205 201 183 217 154 182 156 185 11 216 297 259 207 273 235 249 243 255 261 267 273 268 268 268 268 263 267 265 257 251 244 246 253 260 263 261 265 270 276 282 287
167 186 183 197 158 179 142 88 68 138 160 246 220 200 263 216 197 215 221 249 262 285 261 240 230 248 263 264 259 264 265 246 240 238 239 249 259 266 269 272 277 284 288 288
188 222 214 157 128 138 159 140 146 207 207 233 156 179 250 274 111 182 205 240 276 218 178 174 180 160 115 214 205 234 234 223 222 220 229 240 250 257 264 266 270 273 279 278
196 215 190 188 179 173 190 184 163 193 207 203 143 226 239 208 231 251 248 267 235 179 160 148 124 116 103 101 109 124 153 167 177 193 198 212 225 241 255 254 259 265 277 280
195 227 216 180 168 159 190 210 175 81 53 82 215 285 295 198 223 223 224 210 182 161 146 134 124 116 111 107 104 107 111 117 123 129 141 152 191 221 237 248 256 262 268 269
194 162 192 177 161 214 171 162 189 216 204 227 244 258 239 209 240 231 190 186 167 147 135 131 127 120 114 107 104 103 103 102 102 105 107 109 111 115 122 139 178 222 254 280
162 139 278 146 205 187 163 193 205 175 202 201 233 244 203 227 227 209 192 175 154 140 140 140 135 128 121 115 110 103 102 101 101 101 101 107 110 112 111 103 83 21 336 311
189 140 162 202 309 210 208 201 190 194 203 232 224 255 250 274 219 192 165 148 141 142 143 140 136 131 127 119 111 102 97 92 85 82 78 71 69 67 52 28 4 351 340 334
176 197 158 136 80 279 211 220 207 213 73 197 205 237 103 81 123 146 137 145 148 148 148 146 143 137 128 115 100 86 76 58 40 9 343 329 320 318 320 321 321 321 319 317
177 188 213 212 212 133 196 209 210 209 225 232 224 242 223 190 168 141 144 152 155 154 154 154 151 144 140 136 113 11 357 339 322 325 316 313 313 314 313 314 314 314 315 314
192 210 207 232 184 174 196 201 210 208 221 216 235 223 244 189 185 167 163 159 160 158 159 163 163 165 174 206 282 277 301 309 297 315 322 313 315 313 310 310 311 311 311 310
197 218 181 233 249 212 210 208 204 212 223 226 243 233 246 167 167 165 168 168 169 168 167 167 169 179 199 252 294 307 306 310 315 316 319 321 312 314 314 313 314 314 312 310
193 198 192 221 210 218 233 217 209 211 221 213 217 232 140 190 176 177 174 177 174 171 172 174 179 197 242 290 307 310 316 322 324 328 328 327 323 324 326 326 323 321 319 319
189 197 195 218 153 218 236 210 207 210 219 221 229 250 187 171 157 170 180 178 171 174 176 176 186 226 284 307 315 319 326 329 335 339 341 339 338 340 339 338 336 331 330 329
199 191 217 201 203 313 265 195 176 188 234 205 215 144 122 139 143 156 175 179 177 176 175 182 199 230 292 321 330 333 336 343 348 349 348 346 343 341 339 339 337 336 332 331
185 199 210 162 189 203 248 170 132 110 249 188 190 162 155 149 181 169 179 178 173 173 176 180 190 211 334 346 347 346 347 352 352 352 351 349 344 340 338 337 335 333 331 329
187 193 207 180 203 280 159 152 131 148 240 123 170 165 158 169 155 154 166 165 169 170 170 162 159 160 19 358 355 355 352 351 350 346 344 342 339 335 333 332 331 329 326 324
176 172 200 131 146 251 158 115 184 151 104 145 143 146 146 142 140 149 155 158 161 160 154 145 139 108 34 5 356 351 346 343 340 338 336 333 332 331 329 327 326 324 324 323
215 205 166 195 202 47 62 53 128 155 147 144 148 153 158 148 148 151 152 153 152 151 144 133 119 72 14 358 351 345 339 335 332 330 329 328 327 326 325 324 324 324 325 324
320 327 103 128 181 148 132 115 137 144 139 143 146 153 160 152 149 147 149 151 151 145 138 125 90 37 2 348 340 334 331 329 328 327 327 327 324 323 322 321 321 320 321 322
173 117 131 69 124 112 214 177 153 145 145 145 146 149 150 150 146 151 148 147 144 140 128 110 28 346 339 338 334 330 326 324 323 323 324 324 323 322 320 318 318 317 316 319
191 160 185 224 180 159 173 174 167 155 155 154 154 148 148 151 148 148 146 146 146 141 129 356 326 325 328 329 325 324 324 324 325 326 328 328 325 323 321 319 316 313 311 312
Wind_Speed_850mb
28 8 27 24 27 7 11 10 11 5 7 9 18 30 33 39 41 49 62 64 67 71 73 62 57 49 44 48 54 49 44 44 47 50 58 63 66 66 68 66 59 54 52 51
10 41 11 14 12 15 6 7 8 7 9 11 12 27 31 25 32 60 66 69 69 64 69 66 48 45 50 51 49 51 53 53 54 53 53 60 62 63 62 63 63 59 57 55
20 4 38 22 17 24 23 27 8 6 4 4 9 25 20 19 54 52 65 72 71 71 66 54 44 43 45 49 49 52 59 60 58 56 55 55 61 64 64 60 60 56 58 61
22 14 18 5 28 27 27 16 13 5 7 8 4 20 10 7 8 11 30 38 42 36 45 48 46 48 48 50 49 47 51 58 58 60 57 53 54 59 60 58 55 54 49 47
16 20 27 20 15 25 11 16 26 12 10 5 7 7 7 1 8 8 17 26 28 28 23 23 27 32 34 37 40 41 43 51 55 54 52 48 46 48 58 59 57 54 49 41
13 10 21 24 13 33 15 12 10 6 8 16 18 19 30 15 14 10 12 22 19 21 15 13 11 10 18 20 25 30 29 31 36 41 41 38 34 34 40 44 45 45 43 40
9 17 5 16 14 8 15 16 5 10 11 20 18 15 48 5 2 13 17 15 18 9 14 15 12 8 4 5 7 11 16 19 21 21 21 18 18 17 20 24 27 30 31 32
25 14 24 11 15 15 32 25 13 17 12 8 11 21 21 11 47 52 46 52 31 23 24 23 22 26 29 28 22 15 12 13 13 16 15 16 19 20 22 22 23 23 26 30
26 21 4 12 14 30 18 34 14 7 3 4 10 14 16 16 15 19 23 21 35 35 36 36 38 42 41 42 43 39 34 29 25 20 18 13 10 12 15 19 22 24 26 30
13 4 9 13 15 29 16 21 17 19 12 14 10 9 19 3 16 13 15 26 38 43 44 45 42 41 40 41 42 41 40 40 39 34 30 26 22 17 12 8 5 5 8 12
15 7 1 22 32 35 14 18 16 11 15 14 11 15 14 22 23 16 22 43 55 52 54 51 45 40 38 36 34 34 33 31 30 28 26 22 20 17 12 9 5 4 7 12
22 10 10 31 6 25 39 34 31 14 18 21 3 12 3 10 12 24 30 50 54 52 53 48 42 36 31 27 26 24 22 19 17 15 12 9 8 6 6 7 10 13 17 20
29 12 9 5 0 2 27 25 26 12 4 17 20 23 6 8 11 34 53 52 57 57 50 43 35 28 23 18 14 12 11 9 8 6 6 9 12 15 18 22 26 30 34 37
53 13 34 30 27 16 21 41 39 38 26 36 28 35 12 11 17 26 45 54 56 55 49 39 29 21 15 10 3 3 7 10 13 16 17 20 25 28 33 38 43 48 54 58
21 25 34 40 6 11 18 37 51 41 51 36 49 31 44 19 20 39 59 55 53 45 40 33 25 17 11 4 4 9 18 16 15 23 24 28 34 39 42 47 51 57 63 67
14 8 21 32 19 14 8 23 31 49 58 42 29 15 35 20 43 45 56 58 54 44 34 27 20 13 7 4 5 9 14 19 23 25 31 30 40 44 47 51 57 62 64 64
20 17 15 33 34 25 18 37 39 36 47 50 38 60 13 11 37 49 57 57 56 43 33 25 15 8 5 6 10 15 18 22 26 31 36 41 42 42 43 45 48 51 53 55
32 30 13 9 21 27 23 15 43 41 36 41 31 16 25 24 29 41 50 55 46 36 28 18 10 4 5 8 11 14 18 22 26 29 33 36 40 45 48 47 49 51 55 58
40 33 17 13 23 6 9 13 20 27 46 27 51 14 19 46 39 15 35 37 35 28 20 13 8 5 4 8 12 15 18 21 23 26 31 38 45 48 52 55 58 60 62 62
28 32 21 4 10 18 11 8 7 13 27 19 24 28 26 44 19 10 43 35 29 23 17 12 7 3 3 8 11 14 18 24 29 34 39 43 48 52 56 58 61 64 68 72
18 22 32 14 7 10 4 9 8 20 15 8 26 40 50 19 5 51 49 37 28 21 16 11 8 4 4 9 13 17 23 29 34 40 44 47 51 56 61 63 66 71 74 76
23 18 15 5 7 16 7 9 19 7 11 27 37 48 48 48 54 54 45 36 28 22 17 12 9 5 6 12 16 21 27 33 38 43 48 52 57 63 68 73 74 76 79 84
2 10 14 12 9 5 3 10 5 13 31 30 38 40 55 57 51 46 40 32 26 21 16 13 9 6 9 17 24 30 35 41 46 51 57 62 65 69 72 78 82 85 84 87
4 6 7 8 4 5 8 13 18 28 35 40 46 51 51 58 50 45 38 32 27 21 15 10 7 7 12 19 26 34 42 50 57 63 67 71 76 79 80 81 83 87 88 88
3 8 11 5 5 9 10 22 36 40 45 49 46 47 49 48 43 38 34 28 22 17 12 6 3 9 16 24 32 40 48 54 60 65 70 74 78 82 86 85 86 87 84 81
10 11 10 10 31 8 17 60 55 59 53 51 53 51 41 38 41 35 30 26 19 13 6 2 9 16 22 27 34 41 48 54 60 67 71 74 79 82 85 89 95 85 85 82
Wind_Direction_850mb
180 177 212 190 200 149 167 177 186 213 229 185 232 248 251 248 256 256 258 260 262 267 274 272 272 266 259 261 263 264 264 271 271 264 257 253 256 256 256 255 258 259 259 261
184 230 170 175 194 208 174 180 220 270 230 188 253 255 264 224 238 246 252 257 261 266 268 273 272 262 256 259 259 259 262 268 268 264 265 257 259 262 263 263 262 260 261 262
194 238 172 170 181 200 220 224 168 202 327 247 304 271 226 242 236 244 249 257 263 262 263 267 268 262 261 260 261 264 269 267 264 258 258 259 253 255 260 264 266 265 263 264
229 209 168 150 202 185 219 193 169 164 66 244 19 280 251 273 220 211 239 239 245 258 264 266 267 267 267 269 269 271 268 262 261 254 250 256 259 257 261 266 273 275 277 277
206 167 179 205 201 183 217 154 182 156 185 11 216 297 259 207 273 235 249 243 255 261 267 273 268 268 268 268 263 267 265 257 251 244 246 253 260 263 261 265 270 276 282 287
167 186 183 197 158 179 142 88 68 138 160 246 220 200 263 216 197 215 221 249 262 285 261 240 230 248 263 264 259 264 265 246 240 238 239 249 259 266 269 272 277 284 288 288
188 222 214 157 128 138 159 140 146 207 207 233 156 179 250 274 111 182 205 240 276 218 178 174 180 160 115 214 205 234 234 223 222 220 229 240 250 257 264 266 270 273 279 278
196 215 190 188 179 173 190 184 163 193 207 203 143 226 239 208 231 251 248 267 235 179 160 148 124 116 103 101 109 124 153 167 177 193 198 212 225 241 255 254 259 265 277 280
195 227 216 180 168 159 190 210 175 81 53 82 215 285 295 198 223 223 224 210 182 161 146 134 124 116 111 107 104 107 111 117 123 129 141 152 191 221 237 248 256 262 268 269
194 162 192 177 161 214 171 162 189 216 204 227 244 258 239 209 240 231 190 186 167 147 135 131 127 120 114 107 104 103 103 102 102 105 107 109 111 115 122 139 178 222 254 280
162 139 278 146 205 187 163 193 205 175 202 201 233 244 203 227 227 209 192 175 154 140 140 140 135 128 121 115 110 103 102 101 101 101 101 107 110 112 111 103 83 21 336 311
189 140 162 202 309 210 208 201 190 194 203 232 224 255 250 274 219 192 165 148 141 142 143 140 136 131 127 119 111 102 97 92 85 82 78 71 69 67 52 28 4 351 340 334
176 197 158 136 80 279 211 220 207 213 73 197 205 237 103 81 123 146 137 145 148 148 148 146 143 137 128 115 100 86 76 58 40 9 343 329 320 318 320 321 321 321 319 317
177 188 213 212 212 133 196 209 210 209 225 232 224 242 223 190 168 141 144 152 155 154 154 154 151 144 140 136 113 11 357 339 322 325 316 313 313 314 313 314 314 314 315 314
192 210 207 232 184 174 196 201 210 208 221 216 235 223 244 189 185 167 163 159 160 158 159 163 163 165 174 206 282 277 301 309 297 315 322 313 315 313 310 310 311 311 311 310
197 218 181 233 249 212 210 208 204 212 223 226 243 233 246 167 167 165 168 168 169 168 167 167 169 179 199 252 294 307 306 310 315 316 319 321 312 314 314 313 314 314 312 310
193 198 192 221 210 218 233 217 209 211 221 213 217 232 140 190 176 177 174 177 174 171 172 174 179 197 242 290 307 310 316 322 324 328 328 327 323 324 326 326 323 321 319 319
189 197 195 218 153 218 236 210 207 210 219 221 229 250 187 171 157 170 180 178 171 174 176 176 186 226 284 307 315 319 326 329 335 339 341 339 338 340 339 338 336 331 330 329
199 191 217 201 203 313 265 195 176 188 234 205 215 144 122 139 143 156 175 179 177 176 175 182 199 230 292 321 330 333 336 343 348 349 348 346 343 341 339 339 337 336 332 331
185 199 210 162 189 203 248 170 132 110 249 188 190 162 155 149 181 169 179 178 173 173 176 180 190 211 334 346 347 346 347 352 352 352 351 349 344 340 338 337 335 333 331 329
187 193 207 180 203 280 159 152 131 148 240 123 170 165 158 169 155 154 166 165 169 170 170 162 159 160 19 358 355 355 352 351 350 346 344 342 339 335 333 332 331 329 326 324
176 172 200 131 146 251 158 115 184 151 104 145 143 146 146 142 140 149 155 158 161 160 154 145 139 108 34 5 356 351 346 343 340 338 336 333 332 331 329 327 326 324 324 323
215 205 166 195 202 47 62 53 128 155 147 144 148 153 158 148 148 151 152 153 152 151 144 133 119 72 14 358 351 345 339 335 332 330 329 328 327 326 325 324 324 324 325 324
320 327 103 128 181 148 132 115 137 144 139 143 146 153 160 152 149 147 149 151 151 145 138 125 90 37 2 348 340 334 331 329 328 327 327 327 324 323 322 321 321 320 321 322
173 117 131 69 124 112 214 177 153 145 145 145 146 149 150 150 146 151 148 147 144 140 128 110 28 346 339 338 334 330 326 324 323 323 324 324 323 322 320 318 318 317 316 319
191 160 185 224 180 159 173 174 167 155 155 154 154 148 148 151 148 148 146 146 146 141 129 356 326 325 328 329 325 324 324 324 325 326 328 328 325 323 321 319 316 313 311 312